Weather History for KRNT - April, 2013

Change the Weather History Date:

Tuesday, April 16, 2013

  Actual Average Record
Temperature  
Mean Temperature 45 °F -  
Max Temperature 55 °F 57 °F 82 °F (1999)
Min Temperature 37 °F 42 °F 37 °F (2009)
Degree Days  
Heating Degree Days 20    
Moisture  
Dew Point 37 °F    
Average Humidity 77    
Maximum Humidity 100    
Minimum Humidity 50    
Precipitation  
Precipitation 0.00 in - - ()
Sea Level Pressure  
Sea Level Pressure 30.33 in    
Wind  
Wind Speed 2 mph (NW)    
Max Wind Speed 15 mph    
Max Gust Speed 20 mph    
Visibility 10 miles    
Events      
Averages and records for this station are not official NWS values.
T = Trace of Precipitation, MM = Missing Value Source: NWS Daily Summary

Daily Weather History Graph

Daily Weather History Graph

Search for Another Location

Airport or City:

Trip Planner

Search our weather history database for the weather conditions in past years. The results will help you decide how hot, cold, wet, or windy it might be!

Date:

Astronomy

Apr. 16, 2013 Rise Set
Actual Time 6:17 AM PDT 8:00 PM PDT
Civil Twilight 5:45 AM PDT 8:32 PM PDT
Nautical Twilight 5:05 AM PDT 9:12 PM PDT
Astronomical Twilight 4:22 AM PDT 9:56 PM PDT
Moon 10:30 AM PDT (4/16) 1:12 AM PDT (4/16)
Length of Visible Light 14h 47m
Length of Day
13h 42m
Waxing Crescent, 34% of the Moon is Illuminated
Apr 16
Waxing Crescent
Apr 18
First Quarter
Apr 25
Full
May 2
Last Quarter
May 9
New

Hourly Weather History & Observations

Time (PDT) Temp. Windchill Dew Point Humidity Pressure Visibility Wind Dir Wind Speed Gust Speed Precip Events Conditions
12:53 AM 39.9 °F - 39.0 °F 97% 30.22 in 9.0 mi Calm Calm - N/A   Clear
1:53 AM 37.9 °F - 37.0 °F 97% 30.24 in 9.0 mi Calm Calm - N/A   Clear
2:53 AM 37.0 °F 33.3 °F 37.0 °F 100% 30.24 in 10.0 mi SSE 4.6 mph - N/A   Scattered Clouds
3:53 AM 37.9 °F 35.5 °F 37.0 °F 97% 30.26 in 10.0 mi SE 3.5 mph - N/A   Overcast
4:53 AM 37.4 °F - 35.6 °F 93% 30.26 in 10.0 mi Calm Calm - N/A   Overcast
5:53 AM 37.0 °F - 35.1 °F 93% 30.29 in 10.0 mi Calm Calm - N/A   Partly Cloudy
6:11 AM 37.4 °F - 35.6 °F 93% 30.28 in 10.0 mi Calm Calm - N/A   Mostly Cloudy
6:53 AM 37.0 °F - 35.1 °F 93% 30.31 in 10.0 mi Calm Calm - N/A   Mostly Cloudy
7:53 AM 37.9 °F - 36.0 °F 93% 30.33 in 10.0 mi Calm Calm - N/A   Overcast
8:53 AM 41.0 °F 39.0 °F 37.0 °F 86% 30.34 in 10.0 mi SSE 3.5 mph - N/A   Overcast
9:53 AM 45.0 °F - 39.9 °F 82% 30.35 in 10.0 mi Calm Calm - N/A   Overcast
10:53 AM 45.0 °F - 39.0 °F 80% 30.35 in 10.0 mi Calm Calm - N/A   Overcast
11:32 AM 46.4 °F 44.3 °F 39.2 °F 76% 30.33 in 10.0 mi NW 4.6 mph - N/A   Scattered Clouds
11:53 AM 48.0 °F - 39.9 °F 74% 30.35 in 10.0 mi NW 4.6 mph - N/A   Clear
12:53 PM 51.1 °F - 39.9 °F 66% 30.35 in 10.0 mi NW 5.8 mph - N/A   Clear
1:53 PM 53.1 °F - 39.0 °F 59% 30.34 in 10.0 mi North 4.6 mph - N/A   Clear
2:53 PM 53.1 °F - 35.1 °F 50% 30.34 in 10.0 mi NNW 6.9 mph - N/A   Overcast
3:53 PM 48.9 °F - 37.9 °F 66% 30.37 in 10.0 mi NNW 15.0 mph 19.6 mph 0.00 in   Overcast
4:53 PM 52.0 °F - 37.0 °F 57% 30.35 in 10.0 mi NNW 3.5 mph - 0.00 in   Scattered Clouds
5:53 PM 52.0 °F - 36.0 °F 54% 30.35 in 10.0 mi NW 6.9 mph - N/A   Clear
6:53 PM 53.1 °F - 36.0 °F 52% 30.35 in 10.0 mi NW 4.6 mph - N/A   Clear
7:53 PM 51.1 °F - 36.0 °F 56% 30.36 in 10.0 mi Calm Calm - N/A   Clear
8:53 PM 48.0 °F - 36.0 °F 63% 30.39 in 10.0 mi Calm Calm - N/A   Clear
9:53 PM 46.0 °F - 37.0 °F 71% 30.41 in 10.0 mi Calm Calm - N/A   Clear
10:53 PM 45.0 °F - 37.0 °F 74% 30.42 in 10.0 mi Calm Calm - N/A   Clear
11:53 PM 42.1 °F - 37.9 °F 85% 30.42 in 10.0 mi Calm Calm - N/A   Clear